Stevens Point, WI

2:35 AM CDT on April 26, 2017 (GMT -0500)
Stevens Point Municipal

Weather History for KSTE - November, 2012

Change the Weather History Date:

Saturday, November 10, 2012

  Actual Average Record
Temperature  
Mean Temperature 48 °F -  
Max Temperature 59 °F 43 °F 61 °F (1964)
Min Temperature 36 °F 28 °F 8 °F (1957)
Degree Days  
Heating Degree Days 18    
Moisture  
Dew Point 43 °F    
Average Humidity 90    
Maximum Humidity 98    
Minimum Humidity 73    
Precipitation  
Precipitation 0.01 in - - ()
Sea Level Pressure  
Sea Level Pressure 29.84 in    
Wind  
Wind Speed 11 mph (ESE)    
Max Wind Speed 17 mph    
Max Gust Speed 25 mph    
Visibility 6 miles    
Events Rain    
Averages and records for this station are not official NWS values.
T = Trace of Precipitation, MM = Missing Value Source: NWS Daily Summary

Daily Weather History Graph

Daily Weather History Graph

Search for Another Location

Airport or City:

Trip Planner

Search our weather history database for the weather conditions in past years. The results will help you decide how hot, cold, wet, or windy it might be!

Date:

Astronomy

Nov. 10, 2012 Rise Set
Actual Time 6:48 AM CST 4:35 PM CST
Civil Twilight 6:17 AM CST 5:06 PM CST
Nautical Twilight 5:42 AM CST 5:41 PM CST
Astronomical Twilight 5:08 AM CST 6:15 PM CST
Moon 2:45 AM CST (11/10) 2:28 PM CST (11/10)
Length of Visible Light 10h 48m
Length of Day
9h 46m
Waning Crescent, 14% of the Moon is Illuminated
Nov 10
Waning Crescent
Nov 13
New
Nov 20
First Quarter
Nov 28
Full
Dec 6
Last Quarter

Hourly Weather History & Observations

Time (CST) Temp. Windchill Dew Point Humidity Pressure Visibility Wind Dir Wind Speed Gust Speed Precip Events Conditions
12:15 AM 38.5 °F 29.9 °F 35.8 °F 90% 30.06 in 10.0 mi ENE 15.0 mph 19.6 mph N/A   Overcast
12:35 AM 38.3 °F 31.9 °F 35.6 °F 90% 30.06 in 10.0 mi ENE 9.2 mph - N/A   Overcast
12:55 AM 38.3 °F 30.5 °F 35.1 °F 88% 30.05 in 10.0 mi East 12.7 mph 19.6 mph N/A   Overcast
1:15 AM 37.9 °F 28.9 °F 34.9 °F 89% 30.04 in 10.0 mi East 16.1 mph - N/A   Overcast
1:35 AM 37.6 °F 29.1 °F 34.7 °F 89% 30.02 in 10.0 mi East 13.8 mph 24.2 mph N/A   Overcast
1:55 AM 37.4 °F 30.8 °F 35.1 °F 91% 30.04 in 10.0 mi ENE 9.2 mph 20.7 mph N/A Rain Light Rain
2:15 AM 36.7 °F 28.4 °F 35.1 °F 94% 30.02 in 10.0 mi ENE 12.7 mph 18.4 mph N/A   Light Drizzle
2:35 AM 36.9 °F 30.1 °F 35.4 °F 95% 30.02 in 10.0 mi East 9.2 mph - N/A   Overcast
2:55 AM 37.0 °F 29.8 °F 35.6 °F 95% 30.01 in 10.0 mi East 10.4 mph - N/A   Overcast
3:15 AM 37.0 °F 29.8 °F 35.6 °F 95% 30.01 in 10.0 mi East 10.4 mph - N/A   Overcast
3:35 AM 37.2 °F 30.0 °F 35.8 °F 95% 29.99 in 10.0 mi East 10.4 mph - N/A   Overcast
3:55 AM 37.4 °F 27.8 °F 36.0 °F 95% 29.97 in 10.0 mi East 17.3 mph 25.3 mph N/A   Overcast
4:15 AM 37.4 °F 28.9 °F 35.8 °F 94% 29.98 in 10.0 mi East 13.8 mph 19.6 mph N/A   Overcast
4:35 AM 37.4 °F 28.9 °F 35.8 °F 94% 29.97 in 10.0 mi East 13.8 mph 19.6 mph N/A   Overcast
4:55 AM 37.6 °F 30.0 °F 35.8 °F 93% 29.98 in 10.0 mi ESE 11.5 mph 18.4 mph N/A   Overcast
5:15 AM 37.8 °F 31.8 °F 36.3 °F 95% 29.98 in 7.0 mi East 8.1 mph - N/A   Overcast
5:35 AM 37.8 °F 29.4 °F 36.5 °F 95% 29.97 in 7.0 mi East 13.8 mph - N/A   Overcast
5:55 AM 37.6 °F 31.0 °F 36.5 °F 96% 29.96 in 4.0 mi East 9.2 mph - N/A Rain Light Rain
6:15 AM 37.6 °F 30.5 °F 36.7 °F 97% 29.95 in 7.0 mi ENE 10.4 mph - N/A   Overcast
6:35 AM 37.6 °F 31.0 °F 36.7 °F 97% 29.96 in 7.0 mi ENE 9.2 mph - N/A   Overcast
6:55 AM 37.6 °F 31.0 °F 36.9 °F 97% 29.96 in 5.0 mi ENE 9.2 mph - N/A   Overcast
7:15 AM 37.9 °F 30.9 °F 37.4 °F 98% 29.95 in 4.0 mi East 10.4 mph - N/A   Overcast
7:35 AM 38.3 °F 30.5 °F 37.6 °F 97% 29.93 in 2.5 mi East 12.7 mph 18.4 mph N/A   Overcast
7:55 AM 38.7 °F 31.4 °F 38.1 °F 98% 29.93 in 2.0 mi East 11.5 mph 18.4 mph N/A   Overcast
8:15 AM 39.2 °F 32.5 °F 38.3 °F 97% 29.93 in 2.0 mi East 10.4 mph - N/A   Overcast
8:35 AM 39.6 °F 31.7 °F 38.8 °F 97% 29.91 in 2.0 mi East 13.8 mph 23.0 mph N/A   Overcast
8:55 AM 40.1 °F 33.6 °F 39.4 °F 97% 29.91 in 1.8 mi East 10.4 mph - N/A   Overcast
9:15 AM 40.6 °F 34.8 °F 39.7 °F 97% 29.90 in 1.8 mi East 9.2 mph - N/A   Overcast
9:35 AM 41.5 °F 35.0 °F 40.5 °F 96% 29.89 in 1.8 mi East 11.5 mph - N/A   Overcast
9:55 AM 42.1 °F 37.1 °F 41.0 °F 96% 29.87 in 1.8 mi ESE 8.1 mph 16.1 mph N/A   Overcast
10:15 AM 42.8 °F 37.0 °F 41.2 °F 94% 29.87 in 1.8 mi East 10.4 mph 21.9 mph N/A   Overcast
10:35 AM 43.0 °F 36.8 °F 41.5 °F 95% 29.86 in 1.8 mi East 11.5 mph - N/A   Overcast
10:55 AM 43.7 °F 37.7 °F 41.9 °F 93% 29.86 in 1.8 mi East 11.5 mph - N/A   Overcast
11:15 AM 43.9 °F 37.9 °F 42.4 °F 95% 29.84 in 1.8 mi ESE 11.5 mph - N/A   Overcast
11:35 AM 44.2 °F 38.8 °F 42.8 °F 95% 29.83 in 1.5 mi ESE 10.4 mph 17.3 mph N/A   Overcast
11:55 AM 45.0 °F 38.9 °F 43.5 °F 95% 29.81 in 1.8 mi ESE 12.7 mph - N/A   Overcast
12:15 PM 46.2 °F 42.2 °F 44.4 °F 93% 29.79 in 2.0 mi ESE 8.1 mph - N/A   Overcast
12:35 PM 46.6 °F - 44.6 °F 93% 29.78 in 2.0 mi East 10.4 mph - N/A   Overcast
12:55 PM 46.9 °F - 45.0 °F 93% 29.77 in 2.0 mi East 10.4 mph - N/A   Overcast
1:15 PM 47.8 °F - 45.3 °F 91% 29.76 in 2.5 mi ESE 12.7 mph - N/A   Overcast
1:35 PM 48.6 °F - 45.7 °F 90% 29.75 in 3.0 mi East 10.4 mph - N/A   Overcast
1:55 PM 50.0 °F - 46.4 °F 87% 29.74 in 4.0 mi ESE 9.2 mph - N/A   Overcast
2:15 PM 51.8 °F - 47.5 °F 85% 29.73 in 4.0 mi ESE 11.5 mph - N/A   Haze
2:35 PM 52.7 °F - 47.7 °F 83% 29.73 in 5.0 mi ESE 8.1 mph - N/A   Haze
2:55 PM 52.9 °F - 47.8 °F 83% 29.73 in 5.0 mi East 8.1 mph - N/A   Haze
3:15 PM 52.7 °F - 47.8 °F 84% 29.73 in 5.0 mi East 5.8 mph - N/A   Haze
3:35 PM 52.3 °F - 48.2 °F 86% 29.73 in 5.0 mi East 5.8 mph - N/A   Overcast
3:55 PM 51.8 °F - 47.7 °F 86% 29.74 in 5.0 mi East 4.6 mph - N/A   Mostly Cloudy
4:15 PM 50.4 °F - 47.3 °F 89% 29.74 in 4.0 mi East 4.6 mph - N/A   Scattered Clouds
4:35 PM 49.3 °F - 46.9 °F 92% 29.74 in 4.0 mi East 3.5 mph - N/A   Clear
4:55 PM 48.4 °F - 46.6 °F 93% 29.75 in 4.0 mi East 4.6 mph - N/A   Clear
5:15 PM 47.8 °F - 46.4 °F 95% 29.75 in 4.0 mi ESE 5.8 mph - N/A   Clear
5:35 PM 48.4 °F - 46.8 °F 94% 29.74 in 5.0 mi East 5.8 mph - N/A   Clear
5:55 PM 48.6 °F - 46.8 °F 93% 29.74 in 5.0 mi ESE 5.8 mph - N/A   Clear
6:15 PM 49.1 °F - 47.3 °F 93% 29.73 in 7.0 mi ESE 5.8 mph - N/A   Clear
6:35 PM 51.1 °F - 48.4 °F 90% 29.72 in 10.0 mi SE 4.6 mph - N/A   Clear
6:55 PM 54.5 °F - 50.0 °F 85% 29.71 in 10.0 mi SE 4.6 mph - N/A   Clear
7:15 PM 55.4 °F - 50.2 °F 83% 29.71 in 10.0 mi SSE 6.9 mph - N/A   Clear
7:35 PM 55.9 °F - 50.5 °F 82% 29.70 in 10.0 mi SE 6.9 mph - N/A   Clear
7:55 PM 55.9 °F - 50.5 °F 82% 29.73 in 10.0 mi South 9.2 mph - N/A   Scattered Clouds
8:15 PM 56.5 °F - 50.9 °F 82% 29.70 in 10.0 mi SSE 9.2 mph - N/A   Mostly Cloudy
8:35 PM 56.8 °F - 50.9 °F 80% 29.71 in 10.0 mi South 9.2 mph - N/A   Scattered Clouds
8:55 PM 57.2 °F - 50.9 °F 79% 29.71 in 10.0 mi SSW 9.2 mph - N/A   Scattered Clouds
9:15 PM 57.4 °F - 51.3 °F 80% 29.70 in 10.0 mi South 10.4 mph 16.1 mph N/A   Scattered Clouds
9:35 PM 59.0 °F - 51.4 °F 76% 29.69 in 10.0 mi South 11.5 mph 18.4 mph N/A   Scattered Clouds
9:55 PM 59.2 °F - 51.6 °F 76% 29.70 in 10.0 mi South 13.8 mph 19.6 mph N/A Rain Light Rain
10:15 PM 59.5 °F - 51.4 °F 75% 29.69 in 10.0 mi South 9.2 mph 18.4 mph N/A   Mostly Cloudy
10:55 PM 59.4 °F - 52.0 °F 77% 29.69 in 10.0 mi South 11.5 mph 18.4 mph N/A Rain Light Rain
11:15 PM 58.5 °F - 51.8 °F 79% 29.70 in 10.0 mi South 9.2 mph - N/A   Scattered Clouds
11:35 PM 59.0 °F - 51.1 °F 75% 29.70 in 10.0 mi South 10.4 mph - N/A   Scattered Clouds
11:55 PM 59.0 °F - 50.4 °F 73% 29.70 in 10.0 mi South 12.7 mph 17.3 mph 0.01 in Rain Light Rain